Terug naar catalogus

STARLINK-36123

ActiefCommunicatieVLEO
NORAD 67007·PAYLOAD·🇺🇸 United States

Gelanceerd Dec 10, 2025 vanaf Vandenberg Space Force Base

Loading…

Volgende Passages (komende 24 uur)

TLE

VersSource: CelesTrak SupGP

Epoch: Sep 15, 2026, 03:41 UTC

1 67007C 25293E   26258.15395833  .00049018  00000+0  41091-2 0  2587
2 67007  70.0018 336.6494 0003325 266.1570 332.8498 14.98293829    16

Volg STARLINK-36123 in realtime met AllMySat

Download on the App Store